DELTA 1 DEB, 2118

Orbit data source: Space-Track

DELTA 1 DEB, 2118 is space debris in SSO originally from a launch on Thu, 03 Feb 1966 UTC launched from the Air Force Eastern Test Range (AFETR). Debris objects in space refer to the collection of defunct objects orbiting the Earth. Examples of debris include non-operational satellites, rocket bodies, and fragments generated from explosions, collisions, or faulty payload assembly.

Loading next visibility...
Identifier
2118, 1966-008D
Orbit
SSO
Country
Flag of USUS
Related business
Manufacturer
Unknown
Mission
Spacecraft
Bus & Motor
Unknown
Mass
~1 kg wet, ~1 kg dry
Launch date (UTC)
1966-02-03 (60 years ago)
Launch vehicle
Unknown
Launch site
Air Force Eastern Test Range (AFETR)
Object type
Payload
Rocket body
Debris
Shape & HBR
Box + 1 Cable, 1.8 m
Radar Cross Section
6.125 m², Small (<0.1 m²)

Expand to show TLE details & history
Last TLE update: 2 days ago

TLE from 2 days ago
0 DELTA 1 DEB
1 02118U 66008D   25241.29159806  .00000683  00000-0  18363-3 0  9997
2 02118  98.0188  23.1662 0127679  38.5245 322.4976 14.46328030 93621
Epoch: 2025-08-29T06:59Z
TLE epoch observation values (Epoch: 2025-08-29T06:59:54.072Z)
Latitude
-0.00006°
Longitude
-59.55144°
Altitude
668.984 km
Speed
7.56 km/s
True Right ascension
01h 32m 39s
True Declination
0° 00' 00"
Sunlit
Object was in full shadow at epoch
Visualization orbit readout
Latitude
Unknown
Longitude
Unknown
Altitude
Unknown
Speed
Unknown
Apparent Right ascension
Unknown
Apparent Declination
Unknown
Sunlit
N/A
Visualization observer readout
Local Sidereal Time
15:31:59
Azimuth
Unknown
Elevation
Unknown
Doppler factor
Unknown
Orbital elements
Apogee altitude
825.574 km
Perigee altitude
643.941 km
Semi-major axis
7,112.895 km
Eccentricity
0.01277
Inclination
98.0188°
RAAN
23.1662°
Arg. of periapsis
38.5245°
True anomaly
321.5955°
Mean anomaly
322.4976°
Eccentric anomaly
322.04769°
Mean motion
3.61804 °/min
Orbital period
99.5 mins
BSTAR
0.00018363
Loading maneuver chart data...
Computing Atmospheric mass density...
Loading historical data...
Loading historical data...
Loading historical data...
Loading historical data...
Loading historical data...
Loading historical data...
Loading historical data...
Other satellites on launch #8 in the year 1966 (1966-02-03 UTC)

Documentation

Showing up to 5 results
|